Regional Weather Roundup
Issued by NWS

Home | Current Version | Previous Version | Text Only | Print | Product List | Glossary Off
Versions: 1 2 3 4 5 6 7 8 9 10 11 12 13 14 15 16 17 18 19 20 21 22 23 24 25 26 27 28 29 30 31 32 33 34 35 36 37 38 39 40 41 42 43 44 45 46 47 48 49 50

000
ASUS43 KDTX 220810
RWRMI
MICHIGAN HOURLY REGIONAL WEATHER ROUNDUP
NATIONAL WEATHER SERVICE DETROIT/PONTIAC MI
400 AM EDT TUE JUL 22 2014

NOTE: "FAIR" INDICATES FEW OR NO CLOUDS BELOW 12,000 FEET WITH NO
SIGNIFICANT WEATHER AND/OR OBSTRUCTION TO VISIBILITY.

MIZ047>049-052>055-059>063-066>070-074>076-081>083-220900-
SOUTHEAST LOWER MICHIGAN

CITY           SKY/WX    TMP DP  RH WIND       PRES   REMARKS
ADRIAN         CLEAR     62  59  90 CALM      30.11F
ALMA           CLEAR     64  61  92 CALM      30.08S
ANN ARBOR      FOG       57  54  89 CALM      30.11S VSB 1/2
BAD AXE        CLEAR     64  58  83 S3        30.10S
DETROIT CITY   CLEAR     70  59  68 CALM      30.10S
DETROIT        CLEAR     68  63  84 CALM      30.11S
FLINT          CLEAR     65  57  75 S5        30.10S
GROSSE ILE     CLEAR     72  66  83 S3        30.09R
HILLSDALE      CLEAR     63  62  97 CALM      30.12S
HOWELL         CLEAR     64  60  87 SE3       30.11S

CITY           SKY/WX    TMP DP  RH WIND       PRES   REMARKS
JACKSON        CLEAR     65  60  84 SE6       30.11R
LAMBERTVILLE   CLEAR     63  59  88 CALM      30.11R
LANSING        CLEAR     68  61  78 S3        30.10S
LAPEER         NOT AVBL
MASON          CLEAR     63  59  86 S5        30.10F
MONROE         CLEAR     63  61  94 CALM      30.09R
MT. CLEMENS    CLEAR     64  59  84 NW1       30.10S
PONTIAC        CLEAR     64  57  78 CALM      30.12R
PORT HOPE        N/A     69  59  70 SW7       30.07S
PORT HURON     MOCLDY    57  57 100 CALM      30.11S FOG
TRI CITIES     CLEAR     69  61  75 S7        30.08S
YPSILANTI      CLEAR     66  61  84 CALM      30.11S
$$
MIZ043>046-050>051-056>058-064>065-071>073-077>080-220900-
SOUTHWEST LOWER MICHIGAN

CITY           SKY/WX    TMP DP  RH WIND       PRES   REMARKS
BATTLE CREEK   CLEAR     68  62  81 CALM      30.10S
BENTON HARBOR  CLEAR     63  62  97 CALM      30.07S FOG
BIG RAPIDS     CLEAR     62  62 100 E5        30.05F FOG
COLDWATER      CLEAR     68  64  86 SE6       30.10S
HOLLAND        CLEAR     67  65  93 SE3       30.07S FOG
GRAND RAPIDS   CLEAR     67  65  93 S8        30.07F
KALAMAZOO      CLEAR     66  63  90 CALM      30.09R
MARSHALL       CLEAR     64  61  88 SE3       30.09S
MUSKEGON       CLEAR     68  62  81 S5        30.05F
$$
MIZ016>042-220900-
NORTHERN LOWER MICHIGAN

CITY           SKY/WX    TMP DP  RH WIND       PRES   REMARKS
ALPENA         PTCLDY    64  62  93 CALM      30.04F
BEAVER ISLAND  CLEAR     69  62  76 S7        29.99S
BELLAIRE       CLEAR     65  62  91 CALM      30.01F
CADILLAC       CLEAR     65  62  91 SW5       30.06S
CHARLEVOIX     CLEAR     70  63  78 S6        30.03S
FRANKFORT      SUNNY     75  63  64 S10G16    30.00S
GAYLORD        CLEAR     73  61  65 SW8       30.06F
GRAYLING       CLEAR     60  59  97 CALM      30.06F
HARBOR SPRINGS CLEAR     65  61  87 CALM      30.01S
HOUGHTON LAKE  CLEAR     61  59  93 CALM      30.07F FOG
MANISTEE       CLEAR     66  61  82 CALM      30.03S
OSCODA         CLEAR     66  64  94 CALM      30.05F FOG
PELLSTON       CLEAR     63  61  93 SE5       30.01F
TRAVERSE CITY  CLEAR     70  61  73 SE3       30.00F
$$
MIZ007>008-015-220900-
EASTERN UPPER MICHIGAN

CITY           SKY/WX    TMP DP  RH WIND       PRES   REMARKS
KINROSS        CLEAR     63  63 100 SE7       30.00F
MACKINAC ISLAN CLEAR     67  63  85 SE7       30.00S
NEWBERRY       CLEAR     63  58  84 S5        29.98F
S. S. MARIE    CLEAR     64  58  80 E3        30.00F
$$
MIZ004>006-011>014-085-220900-
CENTRAL UPPER MICHIGAN

CITY           SKY/WX    TMP DP  RH WIND       PRES   REMARKS
MANISTIQUE     CLEAR     61  59  94 SW6       29.96F
ESCANABA       CLEAR     64  61  88 S5        29.94F
MENOMINEE      CLEAR     72  64  78 SW9       29.93F
SAWYER-GWINN   CLEAR     67  64  88 S13       29.91F
$$
MIZ001>003-009>011-084-220900-
WESTERN UPPER MICHIGAN

CITY           SKY/WX    TMP DP  RH WIND       PRES   REMARKS
IRON MOUNTAIN  PTCLDY    68  65  90 SE6       29.92F FOG
HOUGHTON       PTCLDY    74  68  81 S9        29.83F
IRONWOOD       CLOUDY    75  68  78 S10G17    29.82F
$$

ABBREVIATIONS USED IN REMARKS
   TC - TEMPERATURE IN CELSIUS
  WCI - WIND CHILL INDEX
   HX - HEAT INDEX
  VSB - VISIBILITY




USA.gov is the U.S. government's official web portal to all federal, state and local government web resources and services.